SCP
0 -0 -0 0 -0 -0 -0 -0 0 0 0 0 0 0 0 0 0 0 0 0 -0 0 0 -0 -0 -0 0 0 0 0 -0 0
-0 -0 -0 -0 -0 -0 -0 -0 -0 0 0 -0 -0 0 0 -0 0 0 0 -0 -0 0 0 0 0 0 0 0 0 -0 -0 0
-0 -0 -0 -0 -0 -0 -0 -0 -0 -0 0 -0 -0 0 0 0 -0 -0 -0 -0 -0 0 0 0 0 0 0 0 -0 -0 -0 -0
-0 -0 -0 -0 -0 -0 -0 -0 -0 -0 -0 -0 -0 -0 0 0 0 -0 -0 -0 0 0 0 0 0 0 0 0 -0 0 0 0
-0 -0 -0 -0 -0 -0 0 0 0 0 -0 -0 -0 -0 -0 -0 -0 -0 0 0 0 0 0 0 0 0 0 -0 -0 -0 -0 -0
-0 -0 -0 -0 -0 -0 -0 -0 -0 0 -0 -0 0 -0 0 0 0 0 0 0 -0 -0 -0 -0 0 0 -0 -0 -0 0 0 0
-0 -0 -0 -0 -0 -0 -0 -0 0 -0 -0 -0 0 0 0 0 0 0 0 0 0 0 -0 -0 -0 -0 -0 -0 -0 -0 0 -0
0 -0 -0 -0 -0 -0 -0 -0 -0 -0 -0 -0 -0 0 0 0 0 0 0 0 0 0 -0 -0 -0 -0 -0 -0 -0 0 0 0
0 0 0 -0 -0 -0 0 0 0 -0 -0 -0 -0 -0 0 0 0 0 0 0 0 0 -0 -0 -0 -0 -0 -0 -0 0 0 0
0 0 0 0 0 0 0 0 0 0 0 -0 -0 -0 -0 0 0 0 0 0 0 0 0 -0 -0 -0 -0 -0 -0 -0 0 0
0 0 0 0 0 0 0 0 0 0 0 0 -0 -0 -0 -0 -0 0 0 0 0 0 0 0 0 0 -0 -0 -0 -0 -0 -0
0 0 0 0 0 0 0 0 0 0 0 0 0 0 -0 0 -0 -0 0 0 0 0 0 0 0 0 0 -0 -0 -0 -0 -0
0 0 0 0 0 0 0 0 0 0 0 0 0 0 0 0 0 0 -0 -0 0 0 0 0 0 0 0 0 -0 -0 -0 -0
0 0 0 0 0 0 0 0 0 0 0 0 0 0 0 0 0 0 0 0 0 0 0 0 0 0 0 0 0 0 0 0
0 0 0 0 0 1 0 0 0 0 0 0 0 0 0 0 0 0 0 0 0 0 0 0 0 0 0 0 0 0 0 0
0 0 0 0 0 0 0 0 0 0 0 0 0 0 0 0 1 0 0 0 0 0 0 0 0 0 0 0 0 0 0 0
0 0 0 0 0 0 1 1 1 0 0 0 0 1 1 0 1 1 1 1 1 1 1 1 0 0 0 0 0 0 0 0
0 0 0 0 0 0 1 1 1 1 1 0 0 0 0 0 1 2 2 2 1 1 1 0 0 0 0 0 0 0 0 0
0 0 0 0 0 0 0 0 1 1 1 1 1 0 0 0 0 1 2 2 1 1 1 1 1 1 1 0 0 0 0 0
0 0 0 0 0 0 0 0 0 0 2 2 2 1 0 0 1 1 1 1 1 2 2 2 1 2 1 1 0 0 0 0
Wind_Speed_500mb
54 51 47 42 36 33 34 37 37 35 33 33 33 33 34 33 34 34 35 35 36 34 33 30 28 26 25 26 26 23 19 11
54 55 51 47 42 37 35 36 38 37 35 34 34 33 34 34 34 34 34 35 36 35 32 29 27 27 26 28 26 21 9 8
54 58 56 52 47 44 39 38 40 39 37 36 35 37 38 37 38 37 36 36 36 34 31 29 26 26 27 27 24 10 10 8
56 59 55 54 43 48 47 45 45 46 44 42 40 35 38 36 39 39 38 37 37 36 33 30 28 22 25 28 24 17 13 12
52 64 59 53 41 41 42 40 41 47 48 49 41 38 38 39 40 45 43 43 42 41 40 37 34 26 26 25 23 23 16 15
53 57 60 62 46 44 41 42 43 43 46 52 43 44 43 40 35 42 47 45 41 42 38 40 36 38 33 31 34 27 23 20
49 54 62 62 62 46 47 45 45 44 46 53 48 45 45 44 43 41 41 39 42 39 37 37 39 40 41 42 40 39 37 29
48 59 68 63 62 55 50 48 45 47 46 50 63 49 48 49 52 49 44 45 42 41 39 37 37 35 39 45 45 43 40 41
50 54 65 71 70 65 56 50 55 49 50 54 66 62 55 55 51 56 48 47 53 47 45 43 38 38 41 39 45 48 48 49
52 51 54 67 69 68 68 58 55 56 54 52 68 71 62 62 52 55 52 49 54 52 49 44 43 41 40 39 40 42 44 49
46 56 61 63 62 58 63 75 70 58 55 55 63 74 74 67 57 49 52 49 49 48 48 47 44 44 43 43 43 44 45 45
37 48 56 65 63 62 56 57 73 71 59 60 61 70 77 77 66 58 57 51 50 50 51 47 48 44 42 45 46 48 49 52
17 42 51 54 60 66 71 69 70 83 75 74 73 74 76 82 80 72 71 64 60 57 56 59 50 50 42 47 49 54 63 64
25 23 40 55 60 64 69 65 68 75 82 79 87 87 85 87 87 82 77 72 73 74 69 56 53 48 47 40 45 44 48 53
61 49 35 42 60 62 64 64 65 67 69 77 89 90 92 94 92 90 88 87 76 84 83 78 59 49 53 44 28 35 34 37
79 70 57 37 41 64 65 71 75 77 74 74 76 91 98 100 102 99 98 96 95 90 86 84 76 62 49 61 69 49 32 34
89 84 76 67 33 47 70 73 76 69 69 72 73 86 100 100 102 104 106 105 105 101 93 90 79 76 69 52 47 55 60 61
84 92 93 89 54 27 50 71 68 67 65 71 69 71 76 88 96 106 111 111 111 109 104 94 87 76 69 69 66 52 51 52
83 86 94 96 99 69 23 42 65 71 66 70 68 67 69 73 85 99 104 110 111 103 102 108 104 91 97 80 74 77 66 57
74 73 81 88 94 93 89 45 24 53 63 66 70 72 68 69 78 89 93 93 98 103 104 103 99 100 104 93 74 67 63 60
Wind_Direction_500mb
188 188 188 188 188 189 190 187 186 183 182 176 175 174 171 169 169 169 167 164 163 159 157 158 158 158 156 151 145 142 135 152
192 194 192 192 193 194 197 196 193 189 186 183 180 181 179 177 177 178 176 173 171 169 168 169 173 176 169 165 160 153 144 174
195 197 197 196 197 197 199 202 199 196 192 189 188 187 185 185 186 186 185 184 183 181 180 182 182 184 183 180 179 183 201 199
201 201 199 200 196 202 200 203 203 200 199 197 195 193 189 189 197 194 194 193 194 194 195 197 195 201 204 201 197 218 216 224
201 206 203 202 199 201 199 202 202 203 203 204 195 201 199 192 200 199 200 201 202 205 207 208 211 209 214 217 223 224 228 236
207 208 206 207 202 205 206 205 204 204 205 207 201 203 206 199 200 201 204 208 207 213 215 216 220 222 222 225 226 226 234 238
208 208 209 210 206 210 208 210 213 211 210 212 206 207 208 205 205 203 206 208 212 213 215 223 228 229 232 234 236 237 237 241
213 215 217 212 212 211 213 214 217 215 218 215 215 214 215 213 214 212 214 213 214 217 220 224 229 233 239 239 242 244 247 247
222 221 223 219 218 219 218 218 218 221 221 224 224 220 220 217 218 220 218 220 223 223 225 227 229 235 239 242 245 249 250 252
228 225 222 224 223 222 224 222 225 225 225 225 230 226 224 226 223 226 222 221 227 226 228 229 233 235 240 243 248 250 251 253
237 235 234 229 227 226 229 230 229 227 228 229 233 231 229 230 227 227 225 225 227 225 227 228 232 235 240 245 247 250 253 256
255 246 242 239 233 233 234 236 234 232 230 230 232 236 233 233 231 230 229 226 227 227 227 231 232 235 242 248 250 252 254 254
274 265 254 244 235 232 234 235 238 240 234 236 235 236 236 236 235 234 233 231 229 232 232 232 234 235 241 249 254 258 259 258
331 279 263 257 246 243 239 240 241 245 243 237 241 242 239 239 237 234 236 235 235 234 234 231 236 232 235 247 257 264 260 261
9 352 287 255 256 251 246 241 242 242 238 240 240 239 240 239 238 237 237 240 237 240 239 238 233 234 234 228 242 251 267 256
18 12 3 334 261 255 247 244 241 242 242 243 239 244 243 242 243 243 241 242 243 242 244 242 240 232 236 241 236 245 260 273
20 18 12 5 322 253 253 251 249 252 249 244 244 244 249 244 244 244 246 246 247 248 243 246 242 242 235 241 249 250 253 253
20 20 18 15 9 313 267 251 255 257 257 250 248 247 246 248 245 247 247 249 249 250 250 247 248 242 245 240 243 248 251 249
19 21 20 18 19 20 338 258 259 261 262 259 256 253 249 247 252 253 250 249 249 250 249 252 251 248 251 246 245 247 248 248
16 11 13 11 15 15 22 17 279 252 267 267 261 258 255 254 254 263 265 260 254 250 248 250 250 251 253 251 247 246 250 250
Wind_Speed_850mb
54 51 47 42 36 33 34 37 37 35 33 33 33 33 34 33 34 34 35 35 36 34 33 30 28 26 25 26 26 23 19 11
54 55 51 47 42 37 35 36 38 37 35 34 34 33 34 34 34 34 34 35 36 35 32 29 27 27 26 28 26 21 9 8
54 58 56 52 47 44 39 38 40 39 37 36 35 37 38 37 38 37 36 36 36 34 31 29 26 26 27 27 24 10 10 8
56 59 55 54 43 48 47 45 45 46 44 42 40 35 38 36 39 39 38 37 37 36 33 30 28 22 25 28 24 17 13 12
52 64 59 53 41 41 42 40 41 47 48 49 41 38 38 39 40 45 43 43 42 41 40 37 34 26 26 25 23 23 16 15
53 57 60 62 46 44 41 42 43 43 46 52 43 44 43 40 35 42 47 45 41 42 38 40 36 38 33 31 34 27 23 20
49 54 62 62 62 46 47 45 45 44 46 53 48 45 45 44 43 41 41 39 42 39 37 37 39 40 41 42 40 39 37 29
48 59 68 63 62 55 50 48 45 47 46 50 63 49 48 49 52 49 44 45 42 41 39 37 37 35 39 45 45 43 40 41
50 54 65 71 70 65 56 50 55 49 50 54 66 62 55 55 51 56 48 47 53 47 45 43 38 38 41 39 45 48 48 49
52 51 54 67 69 68 68 58 55 56 54 52 68 71 62 62 52 55 52 49 54 52 49 44 43 41 40 39 40 42 44 49
46 56 61 63 62 58 63 75 70 58 55 55 63 74 74 67 57 49 52 49 49 48 48 47 44 44 43 43 43 44 45 45
37 48 56 65 63 62 56 57 73 71 59 60 61 70 77 77 66 58 57 51 50 50 51 47 48 44 42 45 46 48 49 52
17 42 51 54 60 66 71 69 70 83 75 74 73 74 76 82 80 72 71 64 60 57 56 59 50 50 42 47 49 54 63 64
25 23 40 55 60 64 69 65 68 75 82 79 87 87 85 87 87 82 77 72 73 74 69 56 53 48 47 40 45 44 48 53
61 49 35 42 60 62 64 64 65 67 69 77 89 90 92 94 92 90 88 87 76 84 83 78 59 49 53 44 28 35 34 37
79 70 57 37 41 64 65 71 75 77 74 74 76 91 98 100 102 99 98 96 95 90 86 84 76 62 49 61 69 49 32 34
89 84 76 67 33 47 70 73 76 69 69 72 73 86 100 100 102 104 106 105 105 101 93 90 79 76 69 52 47 55 60 61
84 92 93 89 54 27 50 71 68 67 65 71 69 71 76 88 96 106 111 111 111 109 104 94 87 76 69 69 66 52 51 52
83 86 94 96 99 69 23 42 65 71 66 70 68 67 69 73 85 99 104 110 111 103 102 108 104 91 97 80 74 77 66 57
74 73 81 88 94 93 89 45 24 53 63 66 70 72 68 69 78 89 93 93 98 103 104 103 99 100 104 93 74 67 63 60
Wind_Direction_850mb
188 188 188 188 188 189 190 187 186 183 182 176 175 174 171 169 169 169 167 164 163 159 157 158 158 158 156 151 145 142 135 152
192 194 192 192 193 194 197 196 193 189 186 183 180 181 179 177 177 178 176 173 171 169 168 169 173 176 169 165 160 153 144 174
195 197 197 196 197 197 199 202 199 196 192 189 188 187 185 185 186 186 185 184 183 181 180 182 182 184 183 180 179 183 201 199
201 201 199 200 196 202 200 203 203 200 199 197 195 193 189 189 197 194 194 193 194 194 195 197 195 201 204 201 197 218 216 224
201 206 203 202 199 201 199 202 202 203 203 204 195 201 199 192 200 199 200 201 202 205 207 208 211 209 214 217 223 224 228 236
207 208 206 207 202 205 206 205 204 204 205 207 201 203 206 199 200 201 204 208 207 213 215 216 220 222 222 225 226 226 234 238
208 208 209 210 206 210 208 210 213 211 210 212 206 207 208 205 205 203 206 208 212 213 215 223 228 229 232 234 236 237 237 241
213 215 217 212 212 211 213 214 217 215 218 215 215 214 215 213 214 212 214 213 214 217 220 224 229 233 239 239 242 244 247 247
222 221 223 219 218 219 218 218 218 221 221 224 224 220 220 217 218 220 218 220 223 223 225 227 229 235 239 242 245 249 250 252
228 225 222 224 223 222 224 222 225 225 225 225 230 226 224 226 223 226 222 221 227 226 228 229 233 235 240 243 248 250 251 253
237 235 234 229 227 226 229 230 229 227 228 229 233 231 229 230 227 227 225 225 227 225 227 228 232 235 240 245 247 250 253 256
255 246 242 239 233 233 234 236 234 232 230 230 232 236 233 233 231 230 229 226 227 227 227 231 232 235 242 248 250 252 254 254
274 265 254 244 235 232 234 235 238 240 234 236 235 236 236 236 235 234 233 231 229 232 232 232 234 235 241 249 254 258 259 258
331 279 263 257 246 243 239 240 241 245 243 237 241 242 239 239 237 234 236 235 235 234 234 231 236 232 235 247 257 264 260 261
9 352 287 255 256 251 246 241 242 242 238 240 240 239 240 239 238 237 237 240 237 240 239 238 233 234 234 228 242 251 267 256
18 12 3 334 261 255 247 244 241 242 242 243 239 244 243 242 243 243 241 242 243 242 244 242 240 232 236 241 236 245 260 273
20 18 12 5 322 253 253 251 249 252 249 244 244 244 249 244 244 244 246 246 247 248 243 246 242 242 235 241 249 250 253 253
20 20 18 15 9 313 267 251 255 257 257 250 248 247 246 248 245 247 247 249 249 250 250 247 248 242 245 240 243 248 251 249
19 21 20 18 19 20 338 258 259 261 262 259 256 253 249 247 252 253 250 249 249 250 249 252 251 248 251 246 245 247 248 248
16 11 13 11 15 15 22 17 279 252 267 267 261 258 255 254 254 263 265 260 254 250 248 250 250 251 253 251 247 246 250 250